User: anonymous   Login
Location: Unspecified
(0.0000°N, 0.0000°E)
Time: 19:07:14
(UTC+00:00)
Language:

RAX-2 - Orbit

View from above orbital plane
View from above orbital plane
View from above satellite
View from above satellite

Ground track
Ground track

The orbit data is extracted from the following two-line orbital elements,

1 37853U 11061D   15109.15665468  .00011007  00000-0  68165-3 0  9990
2 37853 101.7158 291.2167 0199022 248.1358 228.5465 14.95105102188280
Epoch (UTC): 19 April 2015 03:45:34
Eccentricity: 0.0199022
inclination: 101.7158°
perigee height: 443 km
apogee height: 720 km
right ascension of ascending node: 291.2167°
argument of perigee: 248.1358°
revolutions per day: 14.95105102
mean anomaly at epoch: 228.5465°
orbit number at epoch: 18828

The dashed part of the orbit path shows where the satellite is in the earth's shadow,  

DLR